ITT6033 ZYTL-ZKPY

Flight info

Callsign ITT6033
Flight time 1h 0m
Altitude 31100
Route SAN09D SANKO B332 PONIL W1 SASRI SAS11A
Aircraft A359/H-SDE2E3GHIJ1J3J4J5LM1ORWXY/LB1D1

Departure

Time 2026-04-17 12:07
Airport Dalian Zhoushuizi International Airport (ZYTL)

Arrival

Time 2026-04-17 13:07
Airport Pyongyang Sunan International Airport (ZKPY)
Time Latitude Longitude Altitude Speed Heading
2026-04-17 12:01 38.96320 121.55720 102 ft 0 kts
2026-04-17 12:05 38.96325 121.55720 101 ft 4 kts
2026-04-17 12:06 38.96380 121.55720 101 ft 12 kts 348°
2026-04-17 12:06 38.96429 121.55649 101 ft 13 kts 288°
2026-04-17 12:06 38.96442 121.55511 102 ft 18 kts 275°
2026-04-17 12:06 38.96471 121.55118 105 ft 84 kts 275°
2026-04-17 12:07 38.96554 121.54036 107 ft 158 kts 276°
2026-04-17 12:07 38.96671 121.52471 622 ft 182 kts 274°
2026-04-17 12:07 38.96575 121.50876 1592 ft 182 kts 246°
2026-04-17 12:07 38.95689 121.49720 2129 ft 195 kts 206°
2026-04-17 12:08 38.94255 121.49661 2338 ft 227 kts 163°
2026-04-17 12:08 38.93003 121.50972 2824 ft 245 kts 123°
2026-04-17 12:08 38.92204 121.52974 3243 ft 260 kts 120°
2026-04-17 12:08 38.91286 121.55028 3765 ft 270 kts 120°
2026-04-17 12:09 38.90367 121.57155 4423 ft 274 kts 117°
2026-04-17 12:09 38.89472 121.59333 5083 ft 277 kts 116°
2026-04-17 12:09 38.88588 121.61551 5703 ft 281 kts 115°
2026-04-17 12:09 38.87702 121.63811 6343 ft 285 kts 115°
2026-04-17 12:10 38.86754 121.66067 6976 ft 289 kts 121°
2026-04-17 12:10 38.85409 121.67996 7610 ft 293 kts 138°
2026-04-17 12:10 38.83817 121.69641 8293 ft 295 kts 141°
2026-04-17 12:10 38.82183 121.71252 8971 ft 297 kts 141°
2026-04-17 12:11 38.80540 121.72875 9632 ft 300 kts 140°
2026-04-17 12:11 38.78886 121.74519 10236 ft 305 kts 140°
2026-04-17 12:11 38.77171 121.76231 10508 ft 321 kts 140°
2026-04-17 12:12 38.73475 121.79924 11037 ft 350 kts 141°
2026-04-17 12:12 38.71534 121.81861 11479 ft 357 kts 141°
2026-04-17 12:12 38.70231 121.83161 11821 ft 360 kts 141°
2026-04-17 12:12 38.67568 121.85817 12541 ft 366 kts 141°
2026-04-17 12:13 38.66236 121.87144 12890 ft 368 kts 141°
2026-04-17 12:13 38.64203 121.89169 13413 ft 372 kts 141°
2026-04-17 12:13 38.62148 121.91215 13927 ft 376 kts 141°
2026-04-17 12:13 38.60072 121.93280 14405 ft 380 kts 142°
2026-04-17 12:14 38.57980 121.95359 14911 ft 382 kts 142°
2026-04-17 12:14 38.55873 121.97452 15429 ft 385 kts 142°
2026-04-17 12:14 38.53752 121.99558 15931 ft 388 kts 142°
2026-04-17 12:14 38.51612 122.01681 16430 ft 391 kts 142°
2026-04-17 12:15 38.49457 122.03816 16938 ft 394 kts 142°
2026-04-17 12:15 38.47282 122.05970 17453 ft 397 kts 143°
2026-04-17 12:15 38.45092 122.08138 17945 ft 400 kts 143°
2026-04-17 12:15 38.42887 122.10318 18432 ft 402 kts 143°
2026-04-17 12:16 38.40670 122.12509 18850 ft 405 kts 143°
2026-04-17 12:16 38.38431 122.14719 19265 ft 408 kts 143°
2026-04-17 12:16 38.36178 122.16941 19683 ft 411 kts 143°
2026-04-17 12:16 38.33908 122.19179 20102 ft 414 kts 143°
2026-04-17 12:17 38.31629 122.21446 20517 ft 417 kts 141°
2026-04-17 12:17 38.29553 122.24025 20911 ft 420 kts 129°
2026-04-17 12:17 38.27981 122.27153 21324 ft 420 kts 114°
2026-04-17 12:17 38.27042 122.30665 21725 ft 419 kts 100°
2026-04-17 12:18 38.26495 122.34267 22106 ft 422 kts 97°
2026-04-17 12:18 38.25998 122.37959 22498 ft 425 kts 97°
2026-04-17 12:18 38.25554 122.41680 22876 ft 426 kts 93°
2026-04-17 12:18 38.25548 122.45430 23253 ft 424 kts 80°
2026-04-17 12:19 38.26164 122.49079 23639 ft 421 kts 69°
2026-04-17 12:19 38.27106 122.52606 23937 ft 422 kts 65°
2026-04-17 12:19 38.28171 122.56103 24234 ft 425 kts 64°
2026-04-17 12:19 38.29290 122.59591 24524 ft 428 kts 63°
2026-04-17 12:20 38.30427 122.63104 24816 ft 431 kts 64°
2026-04-17 12:20 38.31564 122.66651 25074 ft 435 kts 64°
2026-04-17 12:20 38.32696 122.70240 25382 ft 438 kts 64°
2026-04-17 12:20 38.33822 122.73862 25684 ft 441 kts 65°
2026-04-17 12:21 38.34946 122.77511 25999 ft 444 kts 65°
2026-04-17 12:21 38.36073 122.81188 26310 ft 448 kts 65°
2026-04-17 12:21 38.37206 122.84896 26634 ft 451 kts 65°
2026-04-17 12:21 38.38346 122.88635 26976 ft 454 kts 65°
2026-04-17 12:22 38.39497 122.92407 27244 ft 459 kts 65°
2026-04-17 12:22 38.40657 122.96215 27557 ft 463 kts 65°
2026-04-17 12:22 38.41826 123.00056 27922 ft 466 kts 65°
2026-04-17 12:22 38.43003 123.03929 28277 ft 470 kts 65°
2026-04-17 12:23 38.44185 123.07825 28763 ft 471 kts 65°
2026-04-17 12:23 38.45368 123.11732 29188 ft 474 kts 65°
2026-04-17 12:23 38.46560 123.15669 29531 ft 478 kts 65°
2026-04-17 12:23 38.47765 123.19650 29838 ft 484 kts 65°
2026-04-17 12:24 38.48979 123.23671 30174 ft 488 kts 65°
2026-04-17 12:24 38.50202 123.27727 30487 ft 491 kts 66°
2026-04-17 12:24 38.51433 123.31817 30784 ft 495 kts 66°
2026-04-17 12:24 38.52670 123.35936 31088 ft 499 kts 66°
2026-04-17 12:25 38.53915 123.40086 31482 ft 501 kts 66°
2026-04-17 12:25 38.55162 123.44251 31808 ft 504 kts 66°
2026-04-17 12:25 38.56419 123.48456 32015 ft 508 kts 66°
2026-04-17 12:25 38.57658 123.52613 32085 ft 493 kts 66°
2026-04-17 12:26 38.58852 123.56638 32085 ft 477 kts 66°
2026-04-17 12:26 38.59993 123.60491 32084 ft 463 kts 66°
2026-04-17 12:26 38.61128 123.64315 32081 ft 459 kts 66°
2026-04-17 12:27 38.63395 123.71937 32075 ft 458 kts 66°
2026-04-17 12:27 38.65654 123.79554 32075 ft 458 kts 66°
2026-04-17 12:28 38.67904 123.87173 32077 ft 458 kts 66°
2026-04-17 12:28 38.70147 123.94799 32081 ft 458 kts 66°
2026-04-17 12:29 38.72895 124.02082 32083 ft 452 kts 53°
2026-04-17 12:29 38.76364 124.08774 32080 ft 450 kts 51°
2026-04-17 12:30 38.79943 124.15354 32082 ft 450 kts 50°
2026-04-17 12:30 38.83516 124.21937 32081 ft 451 kts 52°
2026-04-17 12:30 38.84897 124.25559 32097 ft 456 kts 69°
2026-04-17 12:31 38.85714 124.29496 32075 ft 458 kts 75°
2026-04-17 12:31 38.87027 124.37498 32079 ft 459 kts 76°
2026-04-17 12:32 38.88294 124.45521 32080 ft 459 kts 76°
2026-04-17 12:32 38.89553 124.53558 32088 ft 460 kts 77°
2026-04-17 12:33 38.90808 124.61613 32091 ft 460 kts 77°
2026-04-17 12:33 38.92054 124.69652 32084 ft 458 kts 77°
2026-04-17 12:34 38.93293 124.77684 32086 ft 460 kts 77°
2026-04-17 12:34 38.94532 124.85757 32093 ft 461 kts 77°
2026-04-17 12:35 38.95768 124.93847 32091 ft 461 kts 77°
2026-04-17 12:35 38.96995 125.01915 32091 ft 459 kts 77°
2026-04-17 12:37 39.01835 125.34142 32112 ft 461 kts 78°
2026-04-17 12:38 39.03883 125.41736 32098 ft 448 kts 50°
2026-04-17 12:38 39.06041 125.44599 32099 ft 435 kts 30°
2026-04-17 12:38 39.08619 125.46371 32107 ft 422 kts 14°
2026-04-17 12:39 39.14072 125.49268 32092 ft 426 kts 19°
2026-04-17 12:39 39.19330 125.52888 32094 ft 430 kts 24°
2026-04-17 12:40 39.24764 125.55475 32100 ft 405 kts 355°
2026-04-17 12:40 39.27487 125.55015 32098 ft 389 kts 335°
2026-04-17 12:40 39.29911 125.53573 32090 ft 381 kts 326°
2026-04-17 12:41 39.34947 125.51300 32097 ft 403 kts 354°
2026-04-17 12:41 39.37760 125.51889 32094 ft 419 kts 13°
2026-04-17 12:41 39.40358 125.53691 32094 ft 433 kts 33°
2026-04-17 12:41 39.42446 125.56549 32095 ft 444 kts 52°
2026-04-17 12:42 39.43786 125.60167 32095 ft 451 kts 72°
2026-04-17 12:42 39.44217 125.64180 32093 ft 454 kts 91°
2026-04-17 12:42 39.43687 125.68190 32094 ft 452 kts 111°
2026-04-17 12:42 39.42257 125.71757 32095 ft 445 kts 131°
2026-04-17 12:43 39.40094 125.74521 32096 ft 434 kts 150°
2026-04-17 12:43 39.37470 125.76218 32011 ft 408 kts 170°
2026-04-17 12:43 39.34793 125.76685 31724 ft 372 kts 191°
2026-04-17 12:43 39.32407 125.75934 31381 ft 340 kts 212°
2026-04-17 12:44 39.30337 125.74613 30945 ft 327 kts 214°
2026-04-17 12:44 39.28349 125.73258 30414 ft 320 kts 214°
2026-04-17 12:44 39.26394 125.71918 29754 ft 317 kts 214°
2026-04-17 12:44 39.24458 125.70592 29091 ft 313 kts 214°
2026-04-17 12:45 39.22455 125.69487 28431 ft 316 kts 202°
2026-04-17 12:45 39.20444 125.68502 27689 ft 302 kts 220°
2026-04-17 12:45 39.19089 125.66578 27023 ft 285 kts 249°
2026-04-17 12:45 39.18740 125.64149 26339 ft 275 kts 278°
2026-04-17 12:46 39.19414 125.61876 25728 ft 273 kts 300°
2026-04-17 12:46 39.20393 125.59795 25162 ft 270 kts 298°
2026-04-17 12:46 39.21283 125.57678 24625 ft 267 kts 296°
2026-04-17 12:46 39.22074 125.55529 24112 ft 264 kts 294°
2026-04-17 12:47 39.22711 125.53325 23555 ft 263 kts 278°
2026-04-17 12:47 39.22419 125.51008 23175 ft 269 kts 245°
2026-04-17 12:47 39.21109 125.49277 22981 ft 279 kts 212°
2026-04-17 12:47 39.19227 125.48510 22852 ft 288 kts 198°
2026-04-17 12:48 39.17318 125.47745 22741 ft 286 kts 207°
2026-04-17 12:48 39.15536 125.46656 22665 ft 283 kts 214°
2026-04-17 12:48 39.13664 125.45809 22517 ft 291 kts 192°
2026-04-17 12:48 39.11643 125.46131 22356 ft 299 kts 159°
2026-04-17 12:49 39.10064 125.47711 22232 ft 279 kts 126°
2026-04-17 12:49 39.09469 125.49936 22112 ft 261 kts 88°
2026-04-17 12:49 39.09920 125.52075 22002 ft 237 kts 54°
2026-04-17 12:49 39.10883 125.53651 21899 ft 214 kts 37°
2026-04-17 12:50 39.12013 125.54822 21809 ft 206 kts 28°
2026-04-17 12:50 39.13171 125.55909 21750 ft 207 kts 30°
2026-04-17 12:50 39.14356 125.56944 21700 ft 204 kts 22°
2026-04-17 12:50 39.15640 125.57551 21636 ft 196 kts
2026-04-17 12:51 39.16954 125.57447 21572 ft 186 kts 340°
2026-04-17 12:51 39.18187 125.56955 21532 ft 185 kts 336°
2026-04-17 12:51 39.19398 125.56415 21471 ft 181 kts 336°
2026-04-17 12:51 39.20577 125.55900 21313 ft 173 kts 336°
2026-04-17 12:52 39.21681 125.55425 21160 ft 168 kts 336°
2026-04-17 12:52 39.22784 125.54952 21028 ft 167 kts 336°
2026-04-17 12:52 39.23888 125.54480 20908 ft 167 kts 336°
2026-04-17 12:52 39.25004 125.54013 20479 ft 174 kts 338°
2026-04-17 12:53 39.26276 125.54067 19717 ft 197 kts 15°
2026-04-17 12:53 39.27340 125.55207 19217 ft 207 kts 52°
2026-04-17 12:53 39.27710 125.57012 18727 ft 215 kts 89°
2026-04-17 12:53 39.27218 125.58822 18194 ft 217 kts 127°
2026-04-17 12:54 39.26084 125.60063 17671 ft 213 kts 148°
2026-04-17 12:54 39.24838 125.61083 17108 ft 212 kts 155°
2026-04-17 12:54 39.23532 125.61954 16609 ft 211 kts 156°
2026-04-17 12:54 39.22221 125.62789 16117 ft 209 kts 156°
2026-04-17 12:55 39.20919 125.63609 15641 ft 207 kts 156°
2026-04-17 12:55 39.19624 125.64421 15158 ft 207 kts 156°
2026-04-17 12:55 39.18332 125.65229 14686 ft 206 kts 156°
2026-04-17 12:55 39.17041 125.66034 14221 ft 205 kts 156°
2026-04-17 12:56 39.15756 125.66834 13759 ft 205 kts 156°
2026-04-17 12:56 39.14475 125.67631 13251 ft 204 kts 156°
2026-04-17 12:56 39.13204 125.68419 12768 ft 202 kts 156°
2026-04-17 12:56 39.11944 125.69197 12308 ft 200 kts 156°
2026-04-17 12:57 39.10690 125.69969 11815 ft 199 kts 156°
2026-04-17 12:57 39.09444 125.70734 11387 ft 198 kts 156°
2026-04-17 12:57 39.08208 125.71491 10944 ft 196 kts 156°
2026-04-17 12:57 39.06995 125.72228 10516 ft 194 kts 156°
2026-04-17 12:58 39.05775 125.72955 10100 ft 192 kts 156°
2026-04-17 12:58 39.04563 125.73671 9635 ft 191 kts 156°
2026-04-17 12:58 39.03360 125.74380 9187 ft 189 kts 156°
2026-04-17 12:58 39.02171 125.75083 8758 ft 187 kts 156°
2026-04-17 12:59 39.00998 125.75778 8326 ft 185 kts 157°
2026-04-17 12:59 38.99840 125.76468 7904 ft 183 kts 157°
2026-04-17 12:59 38.98694 125.77156 7483 ft 181 kts 157°
2026-04-17 12:59 38.97642 125.78019 7002 ft 182 kts 131°
2026-04-17 13:00 38.97190 125.79471 6545 ft 174 kts 87°
2026-04-17 13:00 38.97573 125.80854 6059 ft 162 kts 43°
2026-04-17 13:00 38.98529 125.81456 5539 ft 153 kts 358°
2026-04-17 13:00 38.99511 125.81063 5042 ft 149 kts 323°
2026-04-17 13:01 39.00338 125.80262 4568 ft 150 kts 316°
2026-04-17 13:01 39.01125 125.79380 4193 ft 148 kts 315°
2026-04-17 13:01 39.01872 125.78514 3946 ft 142 kts 315°
2026-04-17 13:01 39.02595 125.77666 3636 ft 140 kts 315°
2026-04-17 13:02 39.03067 125.77108 3442 ft 139 kts 315°
2026-04-17 13:02 39.03777 125.76259 3115 ft 139 kts 315°
2026-04-17 13:02 39.04479 125.75406 2809 ft 138 kts 315°
2026-04-17 13:02 39.05176 125.74559 2488 ft 137 kts 315°
2026-04-17 13:03 39.05836 125.73755 2183 ft 137 kts 315°
2026-04-17 13:03 39.06527 125.72910 1849 ft 137 kts 315°
2026-04-17 13:03 39.07242 125.72108 1539 ft 135 kts 325°
2026-04-17 13:03 39.08098 125.71711 1343 ft 126 kts 346°
2026-04-17 13:04 39.08936 125.71477 1184 ft 124 kts 344°
2026-04-17 13:04 39.09775 125.71215 1066 ft 122 kts 343°
2026-04-17 13:04 39.10606 125.70905 1023 ft 123 kts 341°
2026-04-17 13:04 39.11434 125.70586 969 ft 125 kts 340°
2026-04-17 13:05 39.12242 125.70266 899 ft 123 kts 341°
2026-04-17 13:05 39.13071 125.69935 842 ft 122 kts 342°
2026-04-17 13:05 39.13899 125.69621 783 ft 125 kts 343°
2026-04-17 13:05 39.14726 125.69302 732 ft 127 kts 342°
2026-04-17 13:06 39.15550 125.68959 662 ft 125 kts 342°
2026-04-17 13:06 39.16382 125.68637 566 ft 122 kts 344°
2026-04-17 13:06 39.17216 125.68325 449 ft 123 kts 343°
2026-04-17 13:06 39.18043 125.68002 321 ft 126 kts 343°
2026-04-17 13:07 39.18872 125.67684 207 ft 126 kts 342°
2026-04-17 13:07 39.19717 125.67345 117 ft 123 kts 342°
2026-04-17 13:07 39.20388 125.67084 121 ft 65 kts 343°
2026-04-17 13:07 39.20640 125.66987 117 ft 28 kts 346°
2026-04-17 13:08 39.20762 125.67092 116 ft 22 kts 69°
2026-04-17 13:08 39.20703 125.67225 116 ft 19 kts 160°
2026-04-17 13:08 39.20574 125.67278 118 ft 21 kts 163°
2026-04-17 13:08 39.20427 125.67336 118 ft 23 kts 163°
2026-04-17 13:09 39.20264 125.67396 118 ft 25 kts 168°
2026-04-17 13:09 39.20083 125.67396 116 ft 27 kts 171°
2026-04-17 13:09 39.19920 125.67489 115 ft 25 kts 127°
2026-04-17 13:09 39.19850 125.67625 114 ft 10 kts 100°
2026-04-17 13:10 39.19849 125.67643 114 ft 0 kts 96°